Showing default

COSMOS 2165, 21779

Orbit data source: Space-Track

COSMOS 2165, 21779 is a payload satellite owned by UNKS RF (CIS) in LEO that was launched on Tue, 12 Nov 1991 UTC via a TSIKLON-3 launch vehicle from the Plesetsk Missile And Space Complex (PKMTR). Payload-class satellites include a variety of spacecraft equipped with specific instruments for various scientific and technological missions. These include communications satellites like Starlink; space stations such as the ISS; scientific satellites like the Hubble; Earth observation satellites from companies like Planet Labs, Umbra, and HawkEye 360; GPS; miniature CubeSats for education and research; and military/defense satellites.

Loading next visibility...
Identifier
21779, 1991-077A
Orbit
LEO
Country
Flag of CISCIS
Related business
Manufacturer
NPO PM
Mission
Defense Communications
Bus & Motor
STRELA-3, Unknown motor
Mass
225 kg wet, 225 kg dry
Launch date (UTC)
1991-11-12 (34 years ago)
Launch vehicle
TSIKLON-3
Launch site
Plesetsk Missile And Space Complex (PKMTR)
Object type
Payload
Rocket body
Debris
Shape & HBR
Cyl, 0.8 m
Radar Cross Section
1.257 m², Large (>1 m²)

Expand to show TLE details & history
Last TLE update: 14 hours ago

TLE from 14 hours ago
0 COSMOS 2165
1 21779U 91077A   25340.84001200  .00000029  00000-0  97315-4 0  9999
2 21779  82.6071 355.0810 0011426 128.8495  44.7903 12.64915097572673
Epoch: 2025-12-06T20:09Z
TLE epoch observation values (Epoch: 2025-12-06T20:09:37.036Z)
Latitude
6.14234°
Longitude
156.01859°
Altitude
1,398.567 km
Speed
7.164 km/s
True Right ascension
11h 37m 08s
True Declination
6° 06' 32"
Sunlit
Object was in daylight at epoch
Visualization orbit readout
Latitude
Unknown
Longitude
Unknown
Altitude
Unknown
Speed
Unknown
Apparent Right ascension
Unknown
Apparent Declination
Unknown
Sunlit
N/A
Visualization observer readout
Local Sidereal Time
08:17:45
Azimuth
Unknown
Elevation
Unknown
Doppler factor
Unknown
Orbital elements
Apogee altitude
1,408.926 km
Perigee altitude
1,391.151 km
Semi-major axis
7,778.176 km
Eccentricity
0.00114
Inclination
82.6071°
RAAN
355.081°
Arg. of periapsis
128.8495°
True anomaly
44.88264°
Mean anomaly
44.7903°
Eccentric anomaly
44.83646°
Mean motion
3.16393 °/min
Orbital period
113.78 mins
BSTAR
0.000097315
Loading maneuver chart data...
Computing Atmospheric mass density...
Loading historical data...
Loading historical data...
Loading historical data...
Loading historical data...
Loading historical data...
Loading historical data...
Loading historical data...

Documentation

Showing up to 5 results
|